Flag for Portugal Weather past 2 weeks in Vila Nova de Gaia, Portugal

Now
64 °F

Overcast.


Feels Like: 64 °F
Forecast: 60 / 71 °F
Wind: 7 mph from Southwest

Location: Porto / Pedras Rubras

Current Time: Aug 2, 2014 at 3:56:19 AM

Latest Report: Aug 2, 2014 at 3:00 AM


Visibility: N/A

Pressure: 29.92 "Hg

Humidity: 94%

Dew point: 63 °F

Location of Vila Nova de GaiaLocation

Historic Weather in Vila Nova de Gaia — Graph

°F

Vila Nova de Gaia temperature yesterday

Maximum temperature yesterday: 68 °F (at 12:30 PM)
Minimum temperature yesterday: 61 °F (at 7:00 AM)
Average temperature yesterday: 65 °F

Past Weeks' High & Low Weather Summary

 TemperatureHumidityPressure
High90 °F (Jul 30, 1:30 PM)100% (Jul 18, 2:00 AM)30.21 "Hg (Jul 18, 2:00 AM)
Low54 °F (Jul 21, 6:00 AM)27% (Jul 30, 1:30 PM)29.83 "Hg (Jul 19, 3:00 AM)
Average67 °F83%29.98 "Hg
* Reported Jul 18 2:00 AM — Aug 2 2:30 AM, Vila Nova de Gaia, Weather by CustomWeather, © 2014

Note: Actual official high and low records may vary slightly from our data, if they occured in-between our weather recording intervals... More about our weather records

Advertising

Vila Nova de Gaia weather history for previous 24 hours

 ConditionsComfort  
Time TempWeatherWind HumidityBarometerVisibility
2:30 AM
Aug 2
64 °FOvercast.6 mph94%29.92 "HgN/A
2:00 AM64 °FMostly cloudy.6 mph94%29.95 "HgN/A
1:30 AM64 °FOvercast.5 mph94%29.95 "HgN/A
1:00 AM64 °FOvercast.7 mph94%29.95 "HgN/A
12:30 AM64 °FMostly cloudy.5 mph88%29.95 "HgN/A
12:00 AM63 °FPartly cloudy.3 mph94%29.95 "HgN/A
11:30 PM
Aug 1
64 °FMostly cloudy.6 mph94%29.98 "Hg6 mi
11:00 PM64 °FMostly cloudy.6 mph94%29.98 "HgN/A
10:30 PM64 °FPartly cloudy.6 mph94%29.98 "HgN/A
10:00 PM64 °FPartly cloudy.5 mph88%29.98 "HgN/A
9:00 PM64 °FBroken clouds.5 mph88%29.98 "HgN/A
8:30 PM64 °FPartly sunny.5 mph88%29.98 "HgN/A
8:00 PM66 °FPartly sunny.6 mph83%29.98 "HgN/A
7:30 PM66 °FBroken clouds.6 mph83%29.98 "HgN/A
7:00 PM68 °FPartly sunny.6 mph78%29.98 "HgN/A
6:30 PM66 °FPartly sunny.6 mph83%29.98 "HgN/A
6:00 PM68 °FPartly sunny.8 mph73%29.98 "HgN/A
5:30 PM68 °FPartly sunny.7 mph78%29.98 "HgN/A
5:00 PM66 °FPartly sunny.10 mph83%29.98 "HgN/A
4:30 PM68 °FPartly sunny.9 mph73%29.98 "HgN/A
4:00 PM68 °FPassing clouds.9 mph78%29.98 "HgN/A
3:30 PM68 °FPassing clouds.10 mph78%29.98 "HgN/A
3:00 PM66 °FScattered clouds.9 mph83%29.98 "HgN/A
2:30 PM68 °FScattered clouds.10 mph78%29.98 "HgN/A
2:00 PM68 °FPassing clouds.10 mph78%29.98 "HgN/A
1:30 PM68 °FPassing clouds.10 mph78%29.98 "HgN/A
1:00 PM68 °FPassing clouds.12 mph78%29.98 "HgN/A
12:30 PM68 °FScattered clouds.8 mph83%29.98 "HgN/A
12:00 PM66 °FScattered clouds.9 mph83%29.98 "HgN/A
11:30 AM66 °FScattered clouds.8 mph83%29.98 "HgN/A
11:00 AM64 °FMostly cloudy.8 mph88%29.98 "HgN/A
10:30 AM64 °FCloudy.7 mph88%29.98 "Hg5 mi
10:00 AM63 °FLow clouds.3 mph100%29.98 "Hg4 mi
9:30 AM63 °FFog.6 mph94%29.98 "Hg3 mi
9:00 AM63 °FDrizzle. Fog.7 mph94%29.98 "Hg3 mi
8:30 AM63 °FFog.5 mph94%29.95 "Hg2 mi
8:00 AM63 °FFog.3 mph94%29.95 "Hg1 mi
7:30 AM63 °FFog.6 mph94%29.95 "Hg2 mi
7:00 AM61 °FFog.3 mph100%29.95 "Hg2 mi
6:30 AM63 °FPartly cloudy.2 mph94%29.95 "Hg4 mi
6:00 AM63 °FPassing clouds.2 mph94%29.95 "Hg5 mi
5:30 AM63 °FPassing clouds.2 mph94%29.95 "Hg5 mi
5:00 AM63 °FPassing clouds.5 mph94%29.95 "Hg6 mi
4:30 AM63 °FPartly cloudy.No wind94%29.95 "HgN/A
4:00 AM63 °FPassing clouds.1 mph94%29.95 "HgN/A
3:30 AM64 °FMostly cloudy.5 mph88%29.95 "HgN/A
3:00 AM64 °FLow clouds.6 mph88%29.95 "Hg6 mi
Weather by CustomWeather, © 2014

See weather overviewHow to use our weather pages